Location: Goldmont Forest
(38.0233°N, 120.2524°W)
Time: 09:24:48
(UTC+00:00)

IRIDIUM 106 - Pass Details

Date: 01 November 2024
Orbit: 776 x 779 km, 86.4° (Epoch: 06 December)

Event Time Altitude Azimuth Distance (km) Brightness Sun altitude
Rises 13:47:06 0° 23° (NNE) 3,266 7.7 -8.5°
Reaches altitude 10° 13:52:09 10° 65° (ENE) 2,330 7.7 -7.5°
Maximum altitude 13:52:50 10° 73° (ENE) 2,312 7.9 -7.4°
Drops below altitude 10° 13:53:31 10° 80° (E) 2,328 8.1 -7.3°
Sets 13:58:31 0° 123° (ESE) 3,247 9.2 -6.3°
